Location: *
(41.7492°S, 135.4150°W)
Time: 22:04:16
(UTC+00:00)

Altair - All Passes

Search period start: 24 May 2022 00:00
Search period end: 03 June 2022 00:00
Orbit: 1501 x 1683 km, 47.2° (Epoch: 23 May)

Date Brightness Start Highest point End Pass type
(mag) Time Alt. Az. Time Alt. Az. Time Alt. Az.
24 May - 12:40:19 10° NNW 12:49:02 44° NE 12:57:36 10° ESE visible
24 May - 14:43:54 10° WNW 14:53:18 82° SSW 15:02:35 10° ESE visible
24 May - 16:49:32 10° W 16:58:43 63° S 17:07:55 10° E daylight
24 May - 18:54:45 10° WSW 19:04:03 89° SSE 19:13:26 10° ENE daylight
24 May - 20:59:53 10° WSW 21:08:05 37° NW 21:16:28 10° NNE daylight
25 May - 12:15:21 10° NNW 12:23:57 41° NE 12:32:22 10° ESE visible
25 May - 14:18:41 10° WNW 14:28:06 85° SSW 14:37:24 10° ESE visible
25 May - 16:24:17 10° W 16:33:29 62° S 16:42:39 10° E daylight
25 May - 18:29:34 10° WSW 18:38:51 85° SSE 18:48:14 10° ENE daylight
25 May - 20:34:37 10° WSW 20:43:00 41° NW 20:51:33 10° NNE daylight
26 May - 11:50:26 10° NNW 11:58:52 37° NE 12:07:06 10° ESE visible
26 May - 13:53:28 10° WNW 14:02:55 89° SSW 14:12:13 10° ESE visible
26 May - 15:59:01 10° W 16:08:14 63° S 16:17:24 10° E daylight
26 May - 18:04:22 10° WSW 18:13:40 82° SSE 18:23:01 10° ENE daylight
26 May - 20:09:22 10° WSW 20:17:55 44° NW 20:26:35 10° NNE daylight
27 May - 11:25:32 10° NNW 11:33:47 34° NE 11:41:50 10° ESE visible
27 May - 13:28:16 10° WNW 13:37:44 87° NNE 13:47:02 10° ESE visible
27 May - 15:33:46 10° W 15:43:00 63° S 15:52:10 10° ESE visible
27 May - 17:39:10 10° WSW 17:48:28 79° SSE 17:57:47 10° ENE daylight
27 May - 19:44:08 10° WSW 19:52:49 47° NW 20:01:37 10° NNE daylight
27 May - 21:53:23 10° WNW 21:55:45 11° WNW 21:58:09 10° NW daylight
28 May - 11:00:41 10° N 11:08:42 32° NE 11:16:32 10° ESE visible
28 May - 13:03:05 10° WNW 13:12:34 84° NNE 13:21:51 10° ESE visible
28 May - 15:08:29 10° W 15:17:45 63° S 15:26:55 10° ESE visible
28 May - 17:13:58 10° WSW 17:23:16 76° SSE 17:32:33 10° ENE daylight
28 May - 19:18:55 10° WSW 19:27:43 51° NW 19:36:36 10° NNE daylight
28 May - 21:27:01 10° W 21:30:44 13° WNW 21:34:29 10° NNW daylight
29 May - 10:35:52 10° N 10:43:37 29° NE 10:51:13 10° ESE visible
29 May - 12:37:54 10° NW 12:47:24 80° NNE 12:56:40 10° ESE visible
29 May - 14:43:12 10° W 14:52:30 64° S 15:01:41 10° ESE visible
29 May - 16:48:46 10° WSW 16:58:03 74° SSE 17:07:19 10° ENE daylight
29 May - 18:53:43 10° WSW 19:02:37 55° NW 19:11:35 10° NE daylight
29 May - 21:01:06 10° W 21:05:43 15° NW 21:10:23 10° NNW daylight
30 May - 10:11:05 10° N 10:18:33 26° NE 10:25:51 10° ESE visible
30 May - 12:12:44 10° NW 12:22:14 75° NNE 12:31:29 10° ESE visible
30 May - 14:17:56 10° W 14:27:16 65° S 14:36:28 10° ESE visible
30 May - 16:23:33 10° WSW 16:32:50 71° SSE 16:42:05 10° E daylight
30 May - 18:28:30 10° WSW 18:37:29 59° NW 18:46:32 10° NE daylight
30 May - 20:35:23 10° W 20:40:41 17° NW 20:46:04 10° NNW daylight
31 May - 09:46:22 10° N 09:53:30 24° NE 10:00:27 10° E visible
31 May - 11:47:35 10° NW 11:57:04 71° NNE 12:06:18 10° ESE visible
31 May - 13:52:39 10° W 14:02:02 67° S 14:11:14 10° ESE visible
31 May - 15:58:19 10° WSW 16:07:37 69° SSE 16:16:50 10° E daylight
31 May - 18:03:18 10° WSW 18:12:22 63° NW 18:21:28 10° NE daylight
31 May - 20:09:47 10° W 20:15:40 19° NW 20:21:36 10° NNW daylight
01 Jun - 09:21:42 10° N 09:28:26 22° NE 09:35:01 10° E night (unlit)
01 Jun - 11:22:27 10° NW 11:31:55 67° NE 11:41:08 10° ESE visible
01 Jun - 13:27:22 10° W 13:36:48 68° SSW 13:46:02 10° ESE visible
01 Jun - 15:33:05 10° WSW 15:42:24 68° SSE 15:51:35 10° E visible
01 Jun - 17:38:06 10° WSW 17:47:14 67° NW 17:56:23 10° NE daylight
01 Jun - 19:44:16 10° W 19:50:38 21° NW 19:57:03 10° N daylight
02 Jun - 08:57:07 10° NNE 09:03:23 19° NE 09:09:31 10° E night (unlit)
02 Jun - 10:57:20 10° NW 11:06:47 63° NE 11:15:57 10° ESE visible
02 Jun - 13:02:05 10° W 13:11:34 70° SSW 13:20:50 10° ESE visible
02 Jun - 15:07:51 10° WSW 15:17:10 66° S 15:26:20 10° E visible
02 Jun - 17:12:54 10° WSW 17:22:06 72° NNW 17:31:16 10° NE daylight
02 Jun - 19:18:48 10° W 19:25:36 24° NW 19:32:25 10° N daylight
